sat.trackr.live / text

‹ back to catalog

STARLINK-32497

NORAD 62161 · 2024-224Y

PAYLOAD ACTIVE UNKNOWN

§ Identity

Operator
Country
US
Launch date
2024-11-30
Launch site
AFETR
Launch vehicle
Mass (kg)
RCS (m²)

Purposes: comms

External: N2YO · Heavens-Above · Gunter

§ Orbital elements

Epoch: 2026-09-21T00:22:11.473248Z

Period
94.27 min
Inclination
42.9973°
Eccentricity
0.0001928
Mean motion
15.27578459 rev/d
Perigee alt
481.7 km
Apogee alt
484.4 km
Semi-major
6,861.2 km
B*
6.1152e-4
RAAN
138.3697°
Arg perigee
270.5725°
Mean anomaly
89.4906°
Rev number
10,230

§ Raw data

STARLINK-324971 62161U 24224Y   26264.01541057  .00016603  00000+0  61152-3 0  99962 62161  42.9973 138.3697 0001928 270.5725  89.4906 15.27578459102302

JSON: /api/v1/satellites/62161 · /tle

For live sub-satellite position, see the globe view (requires WebGL).

§ Visibility from observer

Set your observer location to see the next 7 days of passes ≥ 10°. The values pass through the URL so the page stays shareable.

No JS? Fill the form by hand. The geolocation button needs JavaScript.